Dewpoint
47 46 42 32 31 28 25 23 20 14 16 20 19 29 30 30 31 33 33 33 38 39 39 40 41 41 41 40 40 39 40 39 39 38 38 37 39 40
48 45 43 35 32 31 28 24 26 21 16 22 23 27 30 30 32 33 32 34 37 38 39 40 40 41 40 39 39 38 38 38 38 36 36 37 38 38
47 43 39 33 31 33 31 28 27 26 20 25 26 27 29 29 31 35 33 33 33 37 39 39 39 39 39 38 37 38 37 37 35 33 36 37 36 36
45 41 38 34 33 32 32 29 28 30 24 21 26 25 27 29 30 32 32 31 31 32 35 36 37 37 38 38 37 37 36 35 31 34 35 34 34 33
44 41 39 35 33 32 32 30 32 32 27 25 24 26 26 27 27 28 29 29 29 30 33 35 36 36 37 37 36 36 33 30 32 33 33 31 31 30
43 41 40 35 35 33 31 31 31 32 28 25 25 24 25 26 26 25 24 26 25 26 28 30 32 33 35 35 34 30 29 30 32 31 30 28 28 30
42 41 40 36 35 33 32 31 31 31 29 25 25 25 25 24 23 24 23 24 25 27 26 26 26 26 26 27 24 25 29 30 30 28 27 27 28 28
43 42 42 41 38 34 32 32 31 30 29 26 26 24 24 25 25 24 23 22 20 27 25 23 24 24 24 22 24 27 28 28 27 25 25 27 27 27
43 40 38 36 35 33 34 33 33 32 31 28 24 24 23 25 25 25 24 23 22 25 24 22 24 22 22 19 24 25 27 25 23 23 25 25 25 25
41 38 37 35 34 33 32 32 31 33 31 29 27 26 26 27 27 26 25 26 26 25 26 23 22 20 22 19 22 25 24 22 21 23 23 23 23 24
42 40 38 36 35 35 33 32 30 30 32 29 28 28 28 30 29 27 24 23 23 25 25 21 20 17 18 15 17 21 20 18 20 21 21 21 21 23
41 40 39 37 37 37 36 35 33 31 30 30 31 32 32 33 32 27 27 23 24 24 25 19 16 15 16 18 16 16 14 16 19 18 18 19 21 22
40 39 39 38 39 40 39 37 38 33 32 29 29 32 33 33 30 29 29 26 23 22 24 18 14 13 11 13 16 17 15 15 16 15 14 16 19 20
41 40 40 41 40 40 40 37 35 33 32 30 30 30 30 28 27 26 25 24 25 24 24 15 11 11 10 10 12 13 13 17 17 14 14 15 16 16
41 40 39 41 40 40 41 41 38 34 32 30 29 29 28 26 24 24 24 23 22 21 20 18 14 14 12 8 6 10 15 12 16 15 14 15 16 16
39 37 37 39 40 40 41 41 37 35 33 30 30 27 25 23 22 21 20 20 18 19 22 20 18 16 10 14 14 10 15 8 14 14 16 16 14 15
39 38 38 38 38 38 39 36 33 33 32 30 28 26 24 22 20 21 20 19 17 17 15 17 17 17 16 14 10 12 11 11 13 15 16 14 13 14
39 38 37 37 37 37 36 34 32 32 30 29 28 26 24 23 21 21 20 19 17 16 13 14 13 9 7 10 17 12 13 11 13 15 16 14 12 12
38 37 37 37 37 37 36 35 32 32 31 29 28 27 25 24 22 20 18 17 15 13 12 12 12 4 -3 -3 9 19 15 13 14 12 14 15 14 14
38 37 36 37 37 37 37 35 33 31 30 30 29 27 26 25 22 20 18 16 14 12 12 12 13 11 6 2 6 12 18 15 12 13 14 15 16 16
38 37 37 37 37 36 35 34 33 32 31 31 30 28 27 25 22 20 18 17 13 12 11 13 14 18 11 8 7 7 9 14 17 15 15 14 13 13
38 37 37 37 37 36 35 34 32 32 32 31 30 29 26 25 22 19 18 18 12 11 13 12 9 11 10 10 9 8 9 9 12 15 15 16 14 12
38 37 37 37 37 36 35 33 32 32 31 30 29 27 25 23 21 20 18 14 12 13 14 12 11 9 8 9 12 8 8 9 9 8 8 14 15 15
Wind_Speed
23 21 20 14 13 10 7 8 8 10 20 9 8 13 16 16 17 15 14 11 12 12 12 11 11 9 10 11 12 12 14 15 16 19 20 21 23 24
21 23 21 10 14 12 10 9 6 6 4 9 12 2 11 13 14 14 12 12 12 11 11 11 11 10 11 11 12 13 13 14 15 18 20 21 22 23
23 23 22 16 16 12 7 7 8 5 5 2 2 2 3 11 12 11 10 11 9 9 10 12 11 10 11 11 12 14 14 13 15 17 21 20 22 24
27 24 23 18 19 17 15 15 11 6 4 8 4 4 2 6 11 11 8 10 9 9 11 12 12 11 11 11 11 13 14 13 15 16 19 19 23 25
28 28 26 24 21 20 20 18 11 8 4 6 6 2 4 5 5 2 6 8 7 9 12 13 12 12 11 10 10 10 11 12 13 15 18 21 24 26
25 25 26 26 26 25 23 21 16 13 7 9 6 7 4 3 8 8 10 6 7 3 9 10 8 8 10 8 6 6 9 11 11 15 19 21 24 25
22 22 21 22 25 24 23 21 21 18 14 14 8 5 6 7 12 9 6 3 2 4 4 3 3 4 5 2 3 5 8 8 12 16 18 22 22 23
25 23 21 24 25 27 27 25 27 26 20 15 11 13 13 8 12 10 8 5 5 3 2 4 2 3 3 2 3 6 6 8 15 16 19 20 20 26
25 25 23 22 26 23 25 25 26 25 23 23 21 16 14 17 16 12 10 8 6 5 3 5 2 4 1 1 5 3 4 11 14 18 18 18 24 26
27 27 28 25 26 24 24 22 21 20 19 17 14 13 6 15 12 11 13 8 4 3 2 5 3 3 2 3 2 2 7 10 17 16 16 22 24 27
25 25 26 25 27 27 23 24 19 17 12 14 10 7 10 16 15 16 12 9 6 4 3 3 2 4 2 1 1 4 7 14 16 15 21 22 24 25
22 22 27 25 29 33 27 25 23 22 21 13 11 10 11 14 16 5 15 11 5 3 7 5 2 3 4 1 1 3 9 11 15 16 21 24 24 17
24 22 22 26 32 34 30 24 29 19 19 20 17 14 12 13 9 6 8 5 7 3 4 5 3 2 1 5 3 2 8 11 11 16 21 21 26 22
26 23 23 33 34 35 31 27 22 22 19 20 20 17 17 14 11 10 12 9 7 6 12 5 5 4 2 2 5 6 12 9 10 17 19 22 25 25
22 23 26 36 35 33 32 24 25 20 19 21 22 17 13 15 16 16 14 15 16 12 5 3 8 6 3 3 5 4 9 8 10 17 23 19 18 16
20 22 22 26 27 25 25 22 20 21 23 21 17 15 15 14 16 12 11 12 8 7 8 8 7 4 2 3 3 6 5 9 12 14 20 21 16 15
21 20 21 22 22 20 19 19 18 20 21 20 21 20 17 17 13 10 11 11 6 9 5 2 3 1 2 4 1 3 7 7 11 15 14 21 21 18
24 24 23 25 26 25 24 23 22 23 20 20 20 22 21 19 19 12 13 10 11 9 6 2 2 2 2 2 5 3 5 8 14 14 8 11 19 21
22 24 24 25 23 26 27 26 25 21 20 21 21 21 20 18 20 19 15 13 11 9 5 2 4 3 2 2 3 8 6 7 14 18 11 12 15 25
26 25 23 23 23 24 25 24 23 22 23 21 20 21 20 22 21 20 18 16 16 10 9 5 6 4 3 2 2 3 4 9 10 12 13 10 17 20
24 23 22 23 24 24 23 22 24 24 23 22 21 22 21 22 20 19 18 18 16 11 16 12 6 1 3 1 3 4 6 8 10 10 14 17 14 10
24 22 23 24 24 23 22 23 23 24 24 22 23 22 21 21 22 22 20 21 16 16 14 9 2 3 2 5 5 7 10 6 8 9 12 7 6 13
24 24 24 24 24 24 25 25 26 25 24 22 24 22 22 22 21 20 18 18 20 19 18 13 6 4 5 2 4 7 9 13 14 15 9 11 19 19
Wind_Direction
198 202 212 205 200 185 159 148 151 185 221 223 199 210 205 200 209 204 212 222 232 241 254 262 274 278 282 292 303 309 313 321 323 324 322 324 324 324
191 197 207 196 197 194 175 175 165 166 191 209 205 182 200 194 203 205 205 219 225 238 250 256 259 268 280 293 297 301 308 316 320 322 318 321 322 326
188 191 192 171 190 205 183 188 186 164 170 147 144 167 182 189 189 198 195 219 222 237 246 255 260 262 267 280 291 298 305 313 320 320 316 325 325 323
184 185 190 182 188 189 190 202 198 173 148 164 160 175 109 208 184 186 188 225 225 238 251 253 256 257 264 271 283 291 303 316 320 326 321 323 321 325
185 184 192 185 190 189 195 198 190 180 152 134 149 156 92 190 143 133 199 228 241 242 248 247 252 257 264 271 277 294 308 314 326 327 318 327 325 324
190 188 191 189 192 189 192 192 180 180 167 159 144 154 156 185 114 191 211 216 238 247 248 248 250 258 263 267 283 305 309 317 331 319 330 328 322 323
186 187 190 192 196 190 187 185 179 181 170 172 166 139 163 168 181 183 190 171 236 226 259 265 247 245 257 244 291 299 301 338 320 333 332 325 326 326
185 190 190 191 200 192 193 185 178 181 181 176 176 182 191 191 166 159 163 165 231 189 200 254 207 245 278 246 285 304 341 335 333 333 329 325 329 326
188 190 187 191 190 193 194 186 186 187 177 183 190 196 183 195 160 158 173 179 187 172 152 270 358 291 209 352 311 8 358 341 333 330 331 332 331 327
188 187 185 182 188 184 183 186 192 188 185 185 202 207 201 169 163 168 170 144 105 119 108 259 345 311 335 14 44 44 346 338 337 334 333 334 332 330
189 187 184 183 185 175 180 184 185 185 181 189 184 157 145 160 147 124 150 164 208 205 188 215 16 306 315 13 127 357 349 338 338 336 335 334 334 329
187 185 181 180 179 178 183 184 188 196 182 158 126 125 135 155 152 142 164 187 143 217 210 183 160 329 341 93 271 356 339 338 341 332 335 335 336 332
183 181 180 174 178 186 188 188 198 185 170 162 146 142 143 142 139 117 144 143 181 194 165 135 153 91 342 303 290 288 332 343 336 327 332 336 336 336
186 184 181 179 182 187 186 193 179 154 154 155 160 164 163 151 132 113 93 88 73 122 143 168 123 151 187 285 283 331 327 338 335 332 336 333 334 333
180 180 178 181 182 186 192 184 170 164 162 166 177 174 162 147 122 100 93 91 79 78 92 80 125 146 170 213 292 312 335 324 331 339 332 330 314 324
169 163 164 172 180 187 190 180 179 180 180 177 167 144 135 136 139 132 135 126 116 98 58 76 105 133 196 222 217 313 315 328 325 344 325 312 323 328
146 149 155 165 174 179 173 171 164 162 165 160 160 156 147 150 140 145 133 147 154 148 139 55 20 352 263 182 328 259 314 317 328 330 332 327 323 324
164 169 171 175 182 178 171 174 178 173 168 159 158 153 162 156 151 148 149 159 151 150 154 189 339 131 42 17 229 288 304 322 322 322 324 315 314 321
178 182 181 181 180 178 178 181 180 175 157 157 158 159 154 152 154 159 157 148 142 142 147 127 56 109 117 357 309 232 312 308 327 331 322 310 301 307
186 185 182 179 176 177 178 177 170 159 160 156 157 154 157 159 159 158 160 156 153 149 135 101 92 88 138 178 289 291 265 288 322 316 314 312 301 296
188 183 182 177 175 176 175 173 166 165 159 157 152 155 161 159 157 152 153 157 154 144 141 137 152 7 125 124 15 310 300 312 295 294 302 312 317 312
187 182 178 177 173 173 167 164 159 158 157 159 156 157 159 159 154 152 155 157 160 149 136 131 130 140 80 64 17 333 330 317 315 314 317 315 328 330
184 185 179 174 173 170 166 164 165 162 161 160 152 153 153 151 147 147 149 144 143 140 139 134 115 75 79 61 7 351 332 343 352 353 341 330 330 320